Wind_Speed
9 9 9 9 9 10 11 12 13 13 14 15 18 20 21 22 24 26 26 26 25 25 26 27 28 29 30 32 33 34 33 34 34 34 34 35 34 35 35 36 36 37 38 39
9 9 9 9 10 11 11 12 13 13 14 15 16 18 21 22 23 24 25 26 26 25 25 26 27 28 29 31 34 36 35 35 35 34 35 35 36 36 37 38 39 40 39 40
9 9 8 9 10 11 12 12 12 14 15 16 16 16 18 20 22 24 25 26 27 27 26 26 26 27 28 30 31 33 35 35 35 35 35 36 37 38 39 39 40 41 41 41
9 9 8 9 10 11 11 12 12 13 14 15 16 16 15 17 19 20 22 24 25 26 26 27 27 28 27 28 29 29 31 33 34 35 36 37 38 38 39 40 40 41 41 41
8 9 9 10 11 11 11 12 12 12 13 14 14 17 16 17 18 19 20 21 22 23 25 25 27 28 28 28 28 29 29 31 33 35 35 36 37 38 38 38 39 40 41 42
8 8 8 9 10 11 12 12 12 13 13 14 14 16 16 16 18 19 21 21 22 23 24 24 25 27 27 27 29 31 32 32 33 34 35 35 36 37 36 36 38 40 41 42
7 6 6 7 8 9 10 11 12 12 13 15 16 17 18 18 19 20 22 22 23 24 25 25 25 26 26 26 27 28 31 31 32 33 34 35 36 37 37 37 38 39 40 41
7 7 7 7 8 9 10 11 12 13 15 16 17 18 18 19 19 20 21 22 23 24 25 26 26 26 27 28 28 28 29 30 30 31 32 34 36 37 38 39 39 39 39 40
8 9 9 9 9 10 11 11 13 14 16 17 18 19 19 20 20 21 21 23 23 24 25 26 26 26 27 28 29 28 28 29 30 32 32 33 34 35 35 36 38 38 39 40
10 10 11 11 11 11 12 13 14 15 17 18 18 19 20 21 22 22 23 23 24 25 26 27 27 28 27 28 29 29 29 29 30 31 32 33 34 35 36 37 38 39 40 41
11 11 11 12 13 13 14 14 15 16 17 19 19 19 20 21 22 23 23 24 25 26 26 27 27 28 28 28 29 30 31 30 30 30 31 32 33 34 35 37 38 39 40 41
12 12 12 13 14 14 15 15 16 18 18 19 20 20 20 21 22 23 24 24 25 25 25 26 26 26 26 27 28 28 30 31 31 31 32 32 33 33 35 36 37 39 39 41
14 14 14 15 15 15 16 16 17 18 19 20 21 20 21 21 22 23 24 24 24 24 24 24 24 24 25 26 26 26 27 28 29 30 31 31 31 33 34 36 37 38 39 40
15 15 16 17 17 17 17 17 18 19 20 21 21 21 21 21 22 22 23 23 23 23 23 24 23 24 24 25 25 25 26 27 27 28 29 30 32 34 35 36 37 38 39 40
17 17 17 18 18 19 19 19 20 20 21 21 21 21 21 21 22 22 22 23 22 22 22 23 24 25 25 25 25 25 26 27 28 29 30 31 33 35 36 37 38 39 39 41
18 18 19 19 20 20 20 20 21 21 22 22 22 22 22 22 23 24 24 23 23 24 24 24 25 26 26 26 26 26 27 28 29 30 31 32 34 36 36 37 38 39 40 42
20 20 21 21 21 22 21 21 22 22 23 23 23 23 24 24 25 26 27 26 26 26 26 26 27 27 27 27 27 28 28 29 30 31 32 33 35 36 37 38 39 40 41 42
22 23 23 23 24 24 23 23 24 24 25 25 25 25 25 26 27 28 29 28 27 28 28 28 28 28 28 28 28 29 29 30 31 32 33 35 36 37 37 38 40 42 43 43
25 25 26 26 27 26 25 25 26 27 26 27 27 27 27 28 29 30 30 30 30 30 30 31 30 30 30 30 30 31 31 32 33 34 35 35 36 37 38 40 42 43 44 44
27 27 28 29 29 29 27 27 28 29 28 29 29 29 29 29 29 29 30 30 31 31 32 32 32 32 32 32 32 32 32 33 34 34 35 36 37 38 40 41 43 44 45 45
29 30 30 30 31 31 30 30 30 31 31 31 31 31 31 30 31 31 31 31 31 32 32 33 33 33 33 33 34 34 34 35 36 36 37 38 38 40 41 43 44 45 45 45
32 32 32 32 33 31 31 31 32 32 33 33 33 33 33 33 32 33 32 32 32 33 33 34 33 33 34 34 34 34 35 36 37 37 38 39 41 42 43 43 44 45 45 45
33 33 33 33 32 33 33 34 34 35 34 34 34 34 34 34 34 34 33 33 33 33 33 33 34 34 34 35 35 35 36 37 38 38 39 40 42 42 43 44 45 45 45 46
35 34 34 33 32 33 34 35 36 36 36 36 35 35 36 35 35 34 34 34 33 33 33 33 33 33 34 34 35 36 37 38 38 39 40 41 42 42 43 45 45 46 46 47
36 36 35 34 32 34 35 37 37 38 37 36 36 36 36 36 36 36 35 35 34 34 33 33 33 33 34 34 35 36 37 39 40 40 41 42 43 44 45 45 46 46 47 48
37 36 36 36 35 37 38 39 40 40 38 37 36 35 36 36 36 36 35 35 35 35 35 35 35 35 35 35 36 38 39 40 41 42 43 44 45 46 47 47 47 48 49 50
Wind_Direction
237 245 249 248 252 251 257 257 259 257 258 258 254 253 252 254 255 255 257 258 262 263 265 264 264 263 261 260 260 261 261 262 264 265 266 268 271 274 275 276 278 280 281 282
239 249 256 255 254 255 259 261 263 264 262 265 263 259 257 257 259 259 259 260 262 266 267 266 267 267 265 263 262 263 263 264 265 266 268 269 272 274 276 278 279 280 281 283
248 254 261 261 261 260 263 265 268 270 269 270 269 262 261 261 263 264 263 263 264 267 268 266 267 269 267 266 265 266 264 265 267 268 270 272 274 275 276 278 280 280 281 283
260 261 265 264 263 265 267 269 274 277 274 270 270 268 267 267 267 269 268 266 267 268 271 271 269 268 267 268 268 267 267 267 268 270 272 273 275 276 277 279 280 281 281 283
275 267 268 267 266 268 271 274 277 278 278 277 275 275 276 274 273 273 273 270 271 272 276 277 274 272 270 270 269 269 269 270 271 272 273 274 275 277 278 279 279 280 281 283
291 286 277 272 270 268 270 277 282 283 285 286 287 287 286 285 280 278 278 277 277 278 279 281 281 278 275 272 272 271 271 271 273 274 274 276 276 277 279 279 279 280 281 282
293 300 292 281 278 273 273 278 283 287 289 290 291 292 294 293 289 286 284 283 283 283 284 284 285 284 279 276 276 276 275 275 276 276 277 277 278 278 279 280 282 282 282 282
288 295 302 297 291 282 279 281 285 287 290 292 293 294 296 298 296 291 288 287 287 287 286 285 285 287 283 279 278 277 277 277 278 279 280 280 281 281 281 282 284 285 286 286
287 289 296 299 300 293 289 287 288 291 294 296 296 297 298 301 300 295 293 291 289 288 287 286 285 286 284 281 280 279 278 278 278 279 280 280 282 283 284 284 285 286 288 289
289 290 294 294 299 300 297 295 291 292 297 299 299 300 301 301 300 298 295 293 291 290 289 287 286 286 285 282 280 279 280 281 282 282 283 283 282 284 286 286 287 289 290 290
294 294 294 293 293 297 297 297 294 293 295 300 302 304 303 302 301 301 299 297 295 294 292 290 289 288 287 285 281 280 281 283 284 284 285 286 287 288 289 289 290 291 292 293
293 295 295 296 296 295 296 297 298 297 297 299 303 306 306 304 304 304 303 301 299 296 294 292 291 291 291 289 286 284 283 284 285 286 288 289 290 291 292 292 293 294 295 297
294 294 296 297 297 298 297 298 297 297 297 298 302 308 309 307 307 307 307 307 305 300 296 296 294 295 294 294 291 289 287 286 287 288 289 290 292 293 294 295 296 297 297 298
292 294 296 297 298 298 297 297 298 299 300 301 303 306 308 308 308 309 310 311 309 306 303 300 296 297 297 296 293 290 290 289 289 290 291 292 294 295 296 297 298 300 300 300
289 291 293 295 297 296 295 296 298 300 301 302 303 304 306 306 307 308 310 311 310 307 306 304 301 299 299 297 294 293 291 291 291 292 292 293 295 296 297 298 300 301 302 303
287 290 292 294 296 296 297 297 298 299 301 301 301 302 302 303 305 306 307 308 308 307 306 305 302 300 300 298 296 295 294 294 293 293 294 294 296 298 299 301 302 302 303 304
287 290 290 291 292 293 293 296 298 299 300 301 301 301 300 300 302 303 304 305 306 305 304 304 303 300 299 298 297 296 296 295 295 295 296 297 298 299 300 302 303 304 305 305
286 288 289 290 291 291 295 295 294 296 298 298 298 298 297 298 299 301 303 303 303 302 302 302 301 300 299 298 298 297 297 297 297 298 298 299 299 301 302 303 303 304 306 307
283 286 288 290 291 293 294 295 294 294 296 295 295 296 297 298 298 299 300 300 300 300 300 300 299 299 298 298 298 298 297 298 298 298 299 300 301 302 303 303 304 305 306 307
283 285 287 289 291 293 295 295 294 294 294 294 294 294 295 296 297 299 299 298 297 298 298 298 297 296 296 297 297 299 299 299 299 300 301 301 302 303 303 304 305 306 307 307
282 283 285 288 290 292 294 294 294 294 295 295 293 293 293 294 297 298 298 297 298 298 298 298 297 296 297 297 296 297 298 299 300 301 302 302 302 302 303 304 306 306 306 307
279 281 284 286 289 293 291 292 292 293 294 294 295 294 294 294 296 296 297 298 298 298 298 298 298 297 297 297 297 297 297 298 299 300 301 301 302 303 305 305 306 306 306 306
277 280 282 285 288 290 289 290 291 292 292 293 295 295 295 295 296 296 296 297 297 298 298 299 299 298 298 297 296 296 297 297 299 301 301 302 303 304 305 306 306 306 305 306
276 277 280 284 287 287 288 289 290 291 292 293 294 294 293 294 294 294 295 296 297 298 299 300 300 299 299 298 297 297 297 298 300 301 302 303 304 305 305 305 305 306 306 306
275 276 278 281 284 284 286 288 289 290 292 293 294 293 292 292 293 294 295 295 296 297 298 300 300 300 299 299 299 300 300 300 300 301 302 302 303 304 305 305 305 306 306 307
275 277 278 280 281 282 284 285 287 288 290 291 291 292 292 292 292 293 293 294 295 296 298 299 300 299 299 299 299 300 301 302 301 301 301 302 303 304 304 304 305 306 306 307
Height
5737 5739 5739 5739 5740 5741 5741 5741 5741 5741 5741 5741 5741 5742 5744 5744 5745 5746 5746 5747 5748 5749 5749 5748 5748 5748 5750 5751 5753 5754 5756 5757 5758 5759 5759 5760 5760 5759 5759 5758 5756 5755 5754 5752
5737 5737 5737 5737 5738 5739 5739 5739 5739 5739 5739 5739 5738 5739 5739 5740 5741 5741 5742 5742 5743 5743 5743 5743 5742 5742 5743 5744 5745 5746 5748 5749 5750 5751 5751 5752 5751 5751 5750 5749 5748 5746 5745 5744
5735 5736 5735 5736 5737 5737 5737 5737 5737 5737 5737 5736 5736 5737 5737 5736 5736 5737 5737 5737 5737 5737 5738 5737 5737 5737 5737 5737 5738 5739 5740 5741 5742 5742 5743 5743 5742 5742 5741 5740 5739 5737 5736 5734
5734 5734 5734 5735 5735 5735 5735 5735 5735 5734 5734 5734 5734 5733 5734 5733 5733 5732 5732 5732 5732 5732 5732 5732 5732 5732 5731 5731 5731 5732 5732 5733 5734 5734 5734 5734 5734 5733 5732 5731 5730 5728 5726 5725
5733 5733 5733 5733 5733 5733 5734 5733 5733 5732 5732 5731 5730 5730 5732 5730 5729 5729 5728 5728 5728 5728 5727 5727 5726 5726 5726 5726 5725 5726 5726 5726 5726 5726 5726 5725 5725 5724 5723 5722 5720 5719 5717 5715
5732 5732 5731 5731 5731 5731 5731 5731 5731 5730 5729 5729 5728 5727 5728 5727 5726 5726 5725 5724 5724 5723 5723 5722 5722 5720 5720 5720 5719 5719 5719 5718 5718 5718 5717 5717 5716 5715 5714 5712 5711 5709 5707 5705
5731 5731 5730 5730 5729 5729 5729 5730 5729 5727 5726 5727 5726 5725 5726 5724 5723 5722 5721 5720 5719 5719 5718 5717 5716 5715 5714 5713 5713 5712 5712 5711 5710 5710 5709 5708 5708 5706 5705 5703 5702 5700 5698 5696
5730 5730 5729 5729 5728 5728 5727 5727 5727 5726 5724 5724 5723 5722 5724 5721 5719 5718 5717 5716 5715 5713 5712 5711 5710 5709 5707 5706 5705 5705 5704 5704 5703 5702 5701 5700 5699 5697 5696 5694 5692 5690 5688 5686
5729 5729 5728 5727 5727 5726 5725 5724 5724 5723 5722 5721 5720 5720 5720 5717 5715 5714 5712 5711 5710 5708 5706 5705 5703 5702 5700 5699 5698 5698 5697 5696 5696 5695 5693 5692 5691 5689 5687 5685 5683 5681 5678 5676
5728 5728 5727 5726 5726 5725 5724 5723 5722 5721 5719 5718 5718 5717 5716 5713 5711 5709 5708 5706 5704 5702 5700 5698 5697 5695 5693 5692 5691 5690 5690 5689 5688 5687 5686 5685 5683 5681 5679 5677 5674 5672 5669 5666
5727 5727 5726 5725 5724 5723 5722 5721 5719 5718 5717 5715 5714 5716 5712 5709 5707 5705 5703 5700 5698 5696 5694 5692 5690 5688 5686 5685 5683 5683 5682 5682 5681 5680 5678 5677 5675 5673 5671 5668 5665 5663 5660 5656
5725 5725 5724 5723 5722 5720 5720 5718 5717 5716 5714 5712 5710 5713 5708 5705 5702 5700 5698 5695 5692 5690 5688 5686 5684 5682 5680 5678 5676 5675 5675 5674 5673 5672 5671 5669 5667 5665 5662 5660 5657 5654 5650 5647
5723 5723 5722 5721 5722 5720 5717 5716 5714 5713 5711 5709 5707 5709 5704 5701 5698 5696 5693 5690 5687 5685 5682 5680 5678 5676 5673 5671 5669 5668 5667 5667 5666 5665 5663 5661 5659 5657 5654 5651 5648 5645 5641 5637
5720 5720 5720 5719 5717 5715 5715 5713 5711 5709 5707 5706 5704 5703 5701 5698 5694 5691 5689 5685 5682 5680 5677 5675 5672 5670 5668 5665 5663 5662 5661 5660 5659 5657 5656 5654 5651 5649 5646 5643 5639 5636 5632 5628
5717 5717 5716 5715 5713 5712 5711 5710 5708 5706 5704 5702 5701 5699 5697 5694 5691 5688 5685 5681 5678 5676 5673 5670 5667 5665 5663 5660 5658 5657 5656 5654 5652 5650 5648 5646 5643 5641 5637 5634 5631 5627 5623 5618
5713 5713 5712 5712 5710 5708 5707 5706 5704 5702 5700 5698 5696 5695 5693 5690 5687 5683 5680 5678 5675 5672 5669 5666 5663 5660 5658 5655 5653 5651 5650 5647 5645 5643 5641 5638 5635 5632 5629 5625 5621 5617 5613 5608
5709 5708 5708 5707 5706 5704 5704 5703 5700 5698 5696 5694 5692 5691 5688 5685 5682 5679 5676 5673 5670 5667 5664 5661 5658 5655 5653 5650 5648 5645 5643 5641 5638 5636 5633 5630 5627 5624 5620 5616 5612 5607 5603 5598
5704 5703 5702 5701 5701 5699 5701 5698 5695 5693 5692 5689 5687 5685 5682 5680 5677 5674 5671 5667 5664 5661 5658 5655 5652 5649 5647 5644 5642 5639 5637 5634 5631 5628 5625 5622 5619 5615 5611 5607 5603 5598 5593 5588
5699 5698 5696 5695 5693 5693 5694 5692 5688 5687 5686 5683 5680 5679 5676 5673 5671 5669 5665 5661 5658 5655 5652 5649 5646 5643 5640 5638 5635 5632 5630 5627 5624 5620 5617 5613 5610 5606 5602 5598 5593 5588 5583 5577
5692 5691 5691 5688 5686 5686 5689 5686 5682 5680 5679 5677 5674 5672 5669 5667 5664 5663 5658 5654 5651 5648 5645 5642 5639 5636 5633 5630 5627 5625 5622 5618 5615 5612 5608 5605 5601 5597 5592 5588 5583 5578 5572 5567
5685 5684 5684 5681 5679 5679 5681 5677 5674 5674 5673 5669 5666 5664 5662 5659 5657 5654 5651 5648 5644 5641 5638 5634 5631 5629 5626 5622 5619 5616 5613 5610 5607 5603 5600 5595 5591 5587 5582 5577 5572 5567 5562 5556
5677 5676 5676 5674 5672 5675 5672 5669 5667 5666 5663 5660 5658 5656 5654 5651 5649 5646 5643 5640 5636 5633 5630 5626 5623 5620 5617 5614 5611 5608 5604 5601 5598 5594 5590 5586 5582 5577 5572 5567 5562 5556 5551 5545
5669 5670 5668 5667 5668 5666 5663 5661 5658 5656 5654 5652 5650 5648 5645 5643 5640 5637 5635 5632 5628 5625 5622 5618 5615 5612 5609 5605 5602 5598 5595 5592 5588 5584 5580 5576 5571 5566 5561 5556 5551 5546 5540 5534
5661 5660 5658 5658 5659 5657 5654 5651 5649 5647 5645 5643 5641 5639 5636 5633 5631 5629 5626 5623 5620 5617 5613 5610 5607 5603 5600 5596 5593 5589 5586 5582 5578 5575 5570 5566 5561 5556 5551 5545 5540 5534 5529 5523
5651 5650 5649 5648 5650 5647 5645 5642 5640 5637 5635 5634 5632 5629 5627 5624 5622 5620 5617 5614 5611 5608 5605 5602 5598 5595 5591 5587 5584 5580 5576 5572 5568 5564 5560 5555 5550 5545 5540 5534 5528 5522 5517 5511
5643 5641 5640 5640 5640 5637 5635 5632 5630 5627 5626 5624 5622 5620 5617 5615 5613 5610 5608 5605 5602 5599 5596 5593 5589 5586 5582 5578 5574 5570 5566 5562 5558 5554 5549 5544 5539 5534 5528 5523 5517 5510 5504 5498